Retour au catalogue

H2SAT

ActifScienceGEO
NORAD 57213·PAYLOAD·🇩🇪 Germany

Lancé Jul 5, 2023 depuis Guiana Space Centre

Loading…

TLE

FraisSource: Space-Track

Époque: Sep 14, 2026, 00:24 UTC

1 57213U 23093A   26257.01735947  .00000000  00000-0  00000-0 0  9993
2 57213   0.0221  42.1196 0000441  89.6839 228.2003  1.00270538 11814

Suivez H2SAT en temps réel avec AllMySat

Download on the App Store